Regional Weather Roundup
Issued by NWS Green Bay, WI

Home | Current Version | Previous Version | Graphics & Text | Print | Product List | Glossary Off
Versions: 1 2 3 4 5 6 7 8 9 10 11 12 13 14 15 16 17 18 19 20 21 22 23 24 25 26 27 28 29 30 31 32 33 34 35 36 37 38 39 40 41 42 43 44 45 46 47 48 49 50

000
ASUS43 KGRB 300400
RWRGRB

NORTH-CENTRAL AND NORTHEAST WISCONSIN REGIONAL WEATHER ROUNDUP
NATIONAL WEATHER SERVICE GREEN BAY WI
1100 PM CDT SUN MAY 29 2016

WIZ005-009-010>012-018-019-300500-
NORTH CENTRAL WISCONSIN

CITY           SKY/WX    TMP DP  RH WIND       PRES   REMARKS
IRONWOOD       CLEAR     54  54 100 CALM      29.91R
MANITOWISH WTR NOT AVBL
ARBOR VITAE    NOT AVBL
EAGLE RIVER    NOT AVBL
LAND O LAKES   NOT AVBL
RHINELANDER    FOG       52  51  97 W5        29.96R VSB 1
PHILLIPS       CLEAR     55  55 100 CALM      29.96R
ANTIGO         NOT AVBL
TOMAHAWK       NOT AVBL
MERRILL        NOT AVBL
$$

WIZ013-073-300500-
NORTHEAST WISCONSIN

CITY           SKY/WX    TMP DP  RH WIND       PRES   REMARKS
IRON MOUNTAIN  CLEAR     60  56  86 W5        29.90R
MARINETTE      CLEAR     64  57  78 CALM      29.93R
$$

WIZ017-030-035>037-045-300500-
CENTRAL WISCONSIN

CITY           SKY/WX    TMP DP  RH WIND       PRES   REMARKS
MEDFORD        NOT AVBL
WAUSAU         CLEAR     61  56  83 CALM      29.94R
MOSINEE        NOT AVBL
MARSHFIELD     CLEAR     62  55  77 W5        29.97R
WISC RAPIDS    CLEAR     57  54  89 SW3       29.98R
STEVENS POINT  NOT AVBL
WAUPACA        PTCLDY    63  60  90 CALM      29.96S
SHAWANO        PTCLDY    66  58  76 SW3       29.94S
CLINTONVILLE   NOT AVBL
WAUTOMA        CLEAR     60  56  86 CALM      29.98
$$

WIZ038-039-048-051-300500-
FOX VALLEY

CITY           SKY/WX    TMP DP  RH WIND       PRES   REMARKS
NWS GREEN BAY  CLEAR     67  58  72 SW6       29.94R
APPLETON       PTCLDY    63  54  72 VRB5      29.94S
OSHKOSH        PTCLDY    65  57  75 SW3       29.96R
FOND DU LAC    CLOUDY    66  59  78 SW5       29.97R
$$

WIZ022-050-052-300500-
EAST CENTRAL WISCONSIN

CITY           SKY/WX    TMP DP  RH WIND       PRES   REMARKS
EPHRAIM        FAIR      63  57  80 NW7       29.92R
STURGEON BAY   NOT AVBL
MANITOWOC      NOT AVBL
SHEBOYGAN      CLEAR     64  57  78 W6        29.95R
$$

LMZ563-521-522-541>543-300500-
LAKESHORE

STATION/POSITION TIME  TEMP    WIND        PRES    VSBY  WAVE
                       AIR SEA DIR/SP/G                  HT/PER
                 (UTC) (F)     (DEG/KT/KT) (MB)    (MI)  (FT/S)
SHEBOYGAN LKSHOR 0300   71     240/  7/  7 1014.1R
KEWAUNEE LKSHORE 0300   68                   N/A
NORTHPORT PIER   0300   64     280/  5/  9 1012.5R
N MID LAKE BUOY  0250   52 48  220/  8/  8 1011.7R         2/ 5
CHAMBERS ISLAND  0300   65     230/  1/  7 1012.9R
MENOMINEE LKSHOR 0300   70                   N/A
$$



USA.gov is the U.S. government's official web portal to all federal, state and local government web resources and services.